Location: Béaulencourt
(50.0796°N, 2.8795°E)
Time: 20:56:35
(UTC+00:00)

Cosmos 2181 Rocket - Pass Details

Date: 20 January 2026
Orbit: 952 x 1013 km, 82.9° (Epoch: 16 February)

Event Time Altitude Azimuth Distance (km) Brightness Sun altitude
Rises 03:55:22 0° 352° (N) 3,727 7.1 -35.1°
Reaches altitude 10° 03:57:56 10° 355° (N) 2,782 6.4 -34.6°
Enters shadow 03:58:04 11° 356° (N) 2,735 6.4 -34.6°
Exits shadow 04:03:06 54° 30° (NNE) 1,218 4.5 -33.8°
Maximum altitude 04:04:18 63° 77° (ENE) 1,118 4.4 -33.6°
Drops below altitude 10° 04:10:40 10° 158° (SSE) 2,788 6.5 -32.6°
Sets 04:13:14 0° 162° (SSE) 3,736 7.2 -32.2°
